Location: Newark
(49.3000°N, 9.4667°E)
Time: 01:28:56
(UTC+00:00)

Transit 2A - All Passes

Search period start: 21 May 2019 00:00
Search period end: 31 May 2019 00:00
Orbit: 592 x 967 km, 66.7° (Epoch: 20 May)

Date Brightness Start Highest point End Pass type
(mag) Time Alt. Az. Time Alt. Az. Time Alt. Az.
21 May - 06:37:35 10° S 06:43:05 34° ESE 06:48:43 10° NE daylight
21 May - 08:19:50 10° SW 08:26:06 62° NW 08:32:27 10° NNE daylight
21 May - 10:05:41 10° WNW 10:10:39 23° NNW 10:15:35 10° NNE daylight
21 May - 11:52:37 10° NW 11:56:17 16° N 11:59:53 10° NE daylight
21 May - 13:37:02 10° NNW 13:41:55 23° NNE 13:46:30 10° ENE daylight
21 May - 15:20:16 10° NNW 15:26:24 66° NE 15:31:56 10° SE daylight
21 May - 17:04:16 10° NW 17:09:09 27° WSW 17:13:39 10° SSW daylight
22 May - 06:04:16 10° SSE 06:09:12 25° ESE 06:14:14 10° NE daylight
22 May - 07:45:35 10° SW 07:51:54 78° NW 07:58:21 10° NE daylight
22 May - 09:30:52 10° W 09:36:11 27° NNW 09:41:28 10° NNE daylight
22 May - 11:17:56 10° NW 11:21:40 16° N 11:25:21 10° NNE daylight
22 May - 13:02:53 10° NNW 13:07:24 20° NNE 13:11:42 10° ENE daylight
22 May - 14:46:10 10° NNW 14:52:09 51° NE 14:57:38 10° ESE daylight
22 May - 16:29:50 10° NW 16:35:16 37° WSW 16:40:13 10° S daylight
23 May - 05:31:17 10° SE 05:35:22 18° ESE 05:39:32 10° ENE daylight
23 May - 07:11:29 10° SSW 07:17:47 82° ESE 07:24:13 10° NE daylight
23 May - 08:56:08 10° W 09:01:46 32° NW 09:07:22 10° NNE daylight
23 May - 10:43:08 10° NW 10:47:04 17° N 10:50:56 10° NNE daylight
23 May - 12:28:40 10° NNW 12:32:51 18° NNE 12:36:52 10° ENE daylight
23 May - 14:12:04 10° NNW 14:17:52 40° NE 14:23:11 10° ESE daylight
23 May - 15:55:31 10° NW 16:01:19 50° WSW 16:06:34 10° S daylight
24 May - 04:58:55 10° SE 05:01:36 13° E 05:04:19 10° ENE daylight
24 May - 06:37:30 10° SSW 06:43:42 63° ESE 06:50:02 10° NE daylight
24 May - 08:21:30 10° WSW 08:27:24 38° NW 08:33:17 10° NNE daylight
24 May - 10:08:17 10° WNW 10:12:29 18° NNW 10:16:37 10° NNE daylight
24 May - 11:54:22 10° NNW 11:58:17 17° N 12:02:03 10° NE daylight
24 May - 13:37:59 10° NNW 13:43:31 33° NE 13:48:38 10° E daylight
24 May - 15:21:18 10° NW 15:27:18 68° WSW 15:32:43 10° SSE daylight
24 May - 17:07:04 10° WNW 17:09:18 12° W 17:11:27 10° WSW daylight
25 May - 06:03:42 10° S 06:09:42 48° ESE 06:15:47 10° NE daylight
25 May - 07:46:58 10° WSW 07:53:04 47° NW 07:59:13 10° NNE daylight
25 May - 09:33:24 10° WNW 09:37:56 20° NNW 09:42:24 10° NNE daylight
25 May - 11:19:58 10° NNW 11:23:41 16° N 11:27:17 10° NE daylight
25 May - 13:03:53 10° NNW 13:09:07 27° NNE 13:13:59 10° E daylight
25 May - 14:47:07 10° NW 14:53:13 90° SW 14:58:42 10° SE daylight
25 May - 16:31:48 10° WNW 16:35:33 18° WSW 16:39:05 10° SW daylight
26 May - 05:30:06 10° S 05:35:44 36° ESE 05:41:27 10° NE daylight
26 May - 07:12:33 10° SW 07:18:49 59° NW 07:25:08 10° NNE daylight
26 May - 08:58:31 10° WNW 09:03:25 22° NNW 09:08:14 10° NNE daylight
26 May - 10:45:26 10° NW 10:49:04 15° N 10:52:36 10° NE daylight
26 May - 12:29:46 10° NNW 12:34:40 23° NNE 12:39:15 10° E daylight
26 May - 14:12:59 10° NNW 14:19:04 70° NE 14:24:34 10° SE daylight
26 May - 15:57:05 10° NW 16:01:44 25° WSW 16:06:03 10° SSW daylight
27 May - 04:56:43 10° SSE 05:01:50 27° ESE 05:07:01 10° NE daylight
27 May - 06:38:16 10° SW 06:44:37 75° NW 06:51:01 10° NE daylight
27 May - 08:23:42 10° W 08:28:56 26° NNW 08:34:07 10° NNE daylight
27 May - 10:10:46 10° NW 10:14:27 16° N 10:18:02 10° NNE daylight
27 May - 11:55:37 10° NNW 12:00:09 20° NNE 12:04:27 10° ENE daylight
27 May - 13:38:52 10° NNW 13:44:50 54° NE 13:50:16 10° ESE daylight
27 May - 15:22:36 10° NW 15:27:52 34° WSW 15:32:41 10° S daylight
28 May - 04:23:39 10° SSE 04:27:59 20° ESE 04:32:23 10° ENE daylight
28 May - 06:04:08 10° SSW 06:10:28 86° SE 06:16:53 10° NE daylight
28 May - 07:48:56 10° W 07:54:31 30° NW 08:00:01 10° NNE daylight
28 May - 09:36:00 10° NW 09:39:51 16° N 09:43:36 10° NNE daylight
28 May - 11:21:25 10° NNW 11:25:37 18° NNE 11:29:38 10° ENE daylight
28 May - 13:04:46 10° NNW 13:10:34 42° NE 13:15:51 10° ESE daylight
28 May - 14:48:16 10° NW 14:53:56 47° WSW 14:59:03 10° S daylight
29 May - 03:51:06 10° SE 03:54:12 14° E 03:57:19 10° ENE daylight
29 May - 05:30:07 10° SSW 05:36:23 67° ESE 05:42:43 10° NE daylight
29 May - 07:14:17 10° WSW 07:20:08 36° NW 07:25:56 10° NNE daylight
29 May - 09:01:08 10° NW 09:05:15 17° NNW 09:09:17 10° NNE daylight
29 May - 10:47:08 10° NNW 10:51:02 17° NNE 10:54:48 10° NE daylight
29 May - 12:30:41 10° NNW 12:36:14 34° NE 12:41:19 10° ESE daylight
29 May - 14:14:01 10° NW 14:19:56 64° WSW 14:25:15 10° SSE daylight
29 May - 16:00:23 10° W 16:01:51 11° W 16:03:17 10° WSW daylight
30 May - 04:56:17 10° S 05:02:21 51° ESE 05:08:30 10° NE daylight
30 May - 06:39:43 10° WSW 06:45:48 45° NW 06:51:52 10° NNE daylight
30 May - 08:26:16 10° WNW 08:30:42 19° NNW 08:35:03 10° NNE daylight
30 May - 10:12:46 10° NNW 10:16:27 16° N 10:20:00 10° NE daylight
30 May - 11:56:36 10° NNW 12:01:50 28° NNE 12:06:42 10° E daylight
30 May - 13:39:49 10° NW 13:45:52 85° SW 13:51:17 10° SSE daylight
30 May - 15:24:43 10° WNW 15:28:07 16° WSW 15:31:20 10° SW daylight
